Time,TemperatureF,DewpointF,PressureIn,WindDirection,WindDirectionDegrees,WindSpeedMPH,WindSpeedGustMPH,Humidity,HourlyPrecipIn,Conditions,Clouds,dailyrainin,SolarRadiationWatts/m^2,SoftwareType,DateUTC
2013-04-05 00:02:00,40.0,38.0,-100.00,SE,146,2.0,10.0,91,0.00,,,0.62,0.000000,,2013-04-05 07:02:00,
2013-04-05 00:12:00,40.0,38.0,-100.00,SE,146,2.0,10.0,91,0.00,,,0.62,0.000000,,2013-04-05 07:12:00,
2013-04-05 00:22:00,40.0,38.0,-100.00,SE,146,2.0,10.0,91,0.00,,,0.62,0.000000,,2013-04-05 07:22:00,
2013-04-05 00:31:00,40.0,38.0,-100.00,SE,146,2.0,10.0,91,0.00,,,0.62,0.000000,,2013-04-05 07:31:00,
2013-04-05 00:52:00,40.0,36.0,-100.00,East,97,3.0,10.0,86,0.01,,,0.63,0.000000,,2013-04-05 07:52:00,
2013-04-05 01:02:00,40.0,36.0,-100.00,East,97,3.0,10.0,86,0.01,,,0.63,0.000000,,2013-04-05 08:02:00,
2013-04-05 01:12:00,40.0,36.0,-100.00,East,97,3.0,10.0,86,0.01,,,0.63,0.000000,,2013-04-05 08:12:00,
2013-04-05 01:22:00,40.0,36.0,-100.00,East,97,3.0,10.0,86,0.01,,,0.63,0.000000,,2013-04-05 08:22:00,
2013-04-05 01:32:00,40.0,36.0,-100.00,East,97,3.0,10.0,86,0.01,,,0.63,0.000000,,2013-04-05 08:32:00,
2013-04-05 01:52:00,38.0,35.0,-100.00,SE,129,3.0,10.0,88,0.00,,,0.63,0.000000,,2013-04-05 08:52:00,
2013-04-05 02:02:00,38.0,35.0,-100.00,SE,129,3.0,10.0,88,0.00,,,0.63,0.000000,,2013-04-05 09:02:00,
2013-04-05 02:12:00,38.0,35.0,-100.00,SE,129,3.0,10.0,88,0.00,,,0.63,0.000000,,2013-04-05 09:12:00,
2013-04-05 02:22:00,38.0,35.0,-100.00,SE,129,3.0,10.0,88,0.00,,,0.63,0.000000,,2013-04-05 09:22:00,
2013-04-05 02:32:00,38.0,35.0,-100.00,SE,129,3.0,10.0,88,0.00,,,0.63,0.000000,,2013-04-05 09:32:00,
2013-04-05 02:53:00,39.0,33.0,-100.00,SSE,155,4.0,13.0,78,0.00,,,0.63,0.000000,,2013-04-05 09:53:00,
2013-04-05 03:02:00,39.0,33.0,-100.00,SSE,155,4.0,13.0,78,0.00,,,0.63,0.000000,,2013-04-05 10:02:00,
2013-04-05 03:12:00,39.0,33.0,-100.00,SSE,155,4.0,13.0,78,0.00,,,0.63,0.000000,,2013-04-05 10:12:00,
2013-04-05 03:23:00,39.0,33.0,-100.00,SSE,155,4.0,13.0,78,0.00,,,0.63,0.000000,,2013-04-05 10:23:00,
2013-04-05 03:32:00,39.0,33.0,-100.00,SSE,155,4.0,13.0,78,0.00,,,0.63,0.000000,,2013-04-05 10:32:00,
2013-04-05 03:53:00,38.0,32.0,-100.00,NE,35,3.0,13.0,80,0.00,,,0.63,0.000000,,2013-04-05 10:53:00,
2013-04-05 04:02:00,38.0,32.0,-100.00,NE,35,3.0,13.0,80,0.00,,,0.63,0.000000,,2013-04-05 11:02:00,
2013-04-05 04:12:00,38.0,32.0,-100.00,NE,35,3.0,13.0,80,0.00,,,0.63,0.000000,,2013-04-05 11:12:00,
2013-04-05 04:21:00,38.0,32.0,-100.00,NE,35,3.0,13.0,80,0.00,,,0.63,0.000000,,2013-04-05 11:21:00,
2013-04-05 04:32:00,38.0,32.0,-100.00,NE,35,3.0,13.0,80,0.00,,,0.63,0.000000,,2013-04-05 11:32:00,
2013-04-05 04:52:00,40.0,33.0,-100.00,SSE,162,5.0,14.0,76,0.00,,,0.63,0.000000,,2013-04-05 11:52:00,
2013-04-05 05:02:00,40.0,33.0,-100.00,SSE,162,5.0,14.0,76,0.00,,,0.63,0.000000,,2013-04-05 12:02:00,
2013-04-05 05:12:00,40.0,33.0,-100.00,SSE,162,5.0,14.0,76,0.00,,,0.63,0.000000,,2013-04-05 12:12:00,
2013-04-05 05:22:00,40.0,33.0,-100.00,SSE,162,5.0,14.0,76,0.00,,,0.63,0.000000,,2013-04-05 12:22:00,
2013-04-05 05:32:00,40.0,33.0,-100.00,SSE,162,5.0,14.0,76,0.00,,,0.63,0.000000,,2013-04-05 12:32:00,
2013-04-05 05:52:00,38.0,34.0,-100.00,SSE,164,5.0,17.0,87,0.02,,,0.65,0.000000,,2013-04-05 12:52:00,
2013-04-05 06:02:00,38.0,34.0,-100.00,SSE,164,5.0,17.0,87,0.02,,,0.65,0.000000,,2013-04-05 13:02:00,
2013-04-05 06:12:00,38.0,34.0,-100.00,SSE,164,5.0,17.0,87,0.02,,,0.65,0.000000,,2013-04-05 13:12:00,
2013-04-05 06:22:00,38.0,34.0,-100.00,SSE,164,5.0,17.0,87,0.02,,,0.65,0.000000,,2013-04-05 13:22:00,
2013-04-05 06:32:00,38.0,34.0,-100.00,SSE,164,5.0,17.0,87,0.02,,,0.65,0.000000,,2013-04-05 13:32:00,
2013-04-05 06:34:00,36.0,34.0,-100.00,ESE,120,3.0,11.0,92,0.07,,,0.72,0.000000,,2013-04-05 13:34:00,
2013-04-05 06:52:00,36.0,34.0,-100.00,ESE,120,3.0,11.0,92,0.07,,,0.72,0.000000,,2013-04-05 13:52:00,
2013-04-05 07:02:00,36.0,34.0,-100.00,ESE,120,3.0,11.0,92,0.07,,,0.72,0.000000,,2013-04-05 14:02:00,
2013-04-05 07:12:00,36.0,34.0,-100.00,ESE,120,3.0,11.0,92,0.07,,,0.72,0.000000,,2013-04-05 14:12:00,
2013-04-05 07:22:00,36.0,34.0,-100.00,ESE,120,3.0,11.0,92,0.07,,,0.72,0.000000,,2013-04-05 14:22:00,
2013-04-05 07:53:00,37.0,34.0,-100.00,SSE,167,4.0,12.0,89,0.02,,,0.74,13.000000,,2013-04-05 14:53:00,
2013-04-05 08:02:00,37.0,34.0,-100.00,SSE,167,4.0,12.0,89,0.02,,,0.74,13.000000,,2013-04-05 15:02:00,
2013-04-05 08:12:00,37.0,34.0,-100.00,SSE,167,4.0,12.0,89,0.02,,,0.74,13.000000,,2013-04-05 15:12:00,
2013-04-05 08:22:00,37.0,34.0,-100.00,SSE,167,4.0,12.0,89,0.02,,,0.74,13.000000,,2013-04-05 15:22:00,
2013-04-05 08:32:00,37.0,34.0,-100.00,SSE,167,4.0,12.0,89,0.02,,,0.74,13.000000,,2013-04-05 15:32:00,
2013-04-05 08:53:00,36.0,33.0,-100.00,SSE,153,5.0,16.0,89,0.01,,,0.75,37.000000,,2013-04-05 15:53:00,
2013-04-05 09:02:00,36.0,33.0,-100.00,SSE,153,5.0,16.0,89,0.01,,,0.75,37.000000,,2013-04-05 16:02:00,
2013-04-05 09:13:00,36.0,33.0,-100.00,SSE,153,5.0,16.0,89,0.01,,,0.75,37.000000,,2013-04-05 16:13:00,
2013-04-05 09:23:00,36.0,33.0,-100.00,SSE,153,5.0,16.0,89,0.01,,,0.75,37.000000,,2013-04-05 16:23:00,
2013-04-05 09:32:00,36.0,33.0,-100.00,SSE,153,5.0,16.0,89,0.01,,,0.75,37.000000,,2013-04-05 16:32:00,
2013-04-05 09:53:00,39.0,35.0,-100.00,SE,143,6.0,24.0,85,0.00,,,0.73,117.000000,,2013-04-05 16:53:00,
2013-04-05 10:03:00,39.0,35.0,-100.00,SE,143,6.0,24.0,85,0.00,,,0.73,117.000000,,2013-04-05 17:03:00,
2013-04-05 10:12:00,39.0,35.0,-100.00,SE,143,6.0,24.0,85,0.00,,,0.73,117.000000,,2013-04-05 17:12:00,
2013-04-05 10:22:00,39.0,35.0,-100.00,SE,143,6.0,24.0,85,0.00,,,0.73,117.000000,,2013-04-05 17:22:00,
2013-04-05 10:32:00,39.0,35.0,-100.00,SE,143,6.0,24.0,85,0.00,,,0.73,117.000000,,2013-04-05 17:32:00,
2013-04-05 10:52:00,40.0,36.0,-100.00,East,81,4.0,19.0,84,0.01,,,0.72,213.000000,,2013-04-05 17:52:00,
2013-04-05 11:02:00,40.0,36.0,-100.00,East,81,4.0,19.0,84,0.01,,,0.72,213.000000,,2013-04-05 18:02:00,
2013-04-05 11:12:00,40.0,36.0,-100.00,East,81,4.0,19.0,84,0.01,,,0.72,213.000000,,2013-04-05 18:12:00,
2013-04-05 11:22:00,40.0,36.0,-100.00,East,81,4.0,19.0,84,0.01,,,0.72,213.000000,,2013-04-05 18:22:00,
2013-04-05 11:32:00,40.0,36.0,-100.00,East,81,4.0,19.0,84,0.01,,,0.72,213.000000,,2013-04-05 18:32:00,
2013-04-05 11:53:00,42.0,37.0,-100.00,ENE,64,5.0,15.0,81,0.00,,,0.65,337.000000,,2013-04-05 18:53:00,
2013-04-05 12:02:00,42.0,37.0,-100.00,ENE,64,5.0,15.0,81,0.00,,,0.65,337.000000,,2013-04-05 19:02:00,
2013-04-05 12:13:00,42.0,37.0,-100.00,ENE,64,5.0,15.0,81,0.00,,,0.65,337.000000,,2013-04-05 19:13:00,
2013-04-05 12:22:00,42.0,37.0,-100.00,ENE,64,5.0,15.0,81,0.00,,,0.65,337.000000,,2013-04-05 19:22:00,
2013-04-05 12:32:00,42.0,37.0,-100.00,ENE,64,5.0,15.0,81,0.00,,,0.65,337.000000,,2013-04-05 19:32:00,
2013-04-05 12:52:00,44.0,37.0,-100.00,SSE,152,6.0,18.0,75,0.00,,,0.55,591.000000,,2013-04-05 19:52:00,
2013-04-05 13:02:00,44.0,37.0,-100.00,SSE,152,6.0,18.0,75,0.00,,,0.55,591.000000,,2013-04-05 20:02:00,
2013-04-05 13:11:00,44.0,37.0,-100.00,SSE,152,6.0,18.0,75,0.00,,,0.55,591.000000,,2013-04-05 20:11:00,
2013-04-05 13:22:00,44.0,37.0,-100.00,SSE,152,6.0,18.0,75,0.00,,,0.55,591.000000,,2013-04-05 20:22:00,
2013-04-05 13:31:00,44.0,37.0,-100.00,SSE,152,6.0,18.0,75,0.00,,,0.55,591.000000,,2013-04-05 20:31:00,
2013-04-05 13:52:00,45.0,37.0,-100.00,ESE,106,6.0,25.0,72,-99.99,,,0.45,596.000000,,2013-04-05 20:52:00,
2013-04-05 14:02:00,45.0,37.0,-100.00,ESE,106,6.0,25.0,72,-99.99,,,0.45,596.000000,,2013-04-05 21:02:00,
2013-04-05 14:12:00,45.0,37.0,-100.00,ESE,106,6.0,25.0,72,-99.99,,,0.45,596.000000,,2013-04-05 21:12:00,
2013-04-05 14:23:00,45.0,37.0,-100.00,ESE,106,6.0,25.0,72,-99.99,,,0.45,596.000000,,2013-04-05 21:23:00,
2013-04-05 14:32:00,45.0,37.0,-100.00,ESE,106,6.0,25.0,72,-99.99,,,0.45,596.000000,,2013-04-05 21:32:00,
2013-04-05 14:54:00,45.0,36.0,-100.00,SSE,149,6.0,23.0,70,-99.99,,,0.34,573.000000,,2013-04-05 21:54:00,
2013-04-05 15:03:00,45.0,36.0,-100.00,SSE,149,6.0,23.0,70,-99.99,,,0.34,573.000000,,2013-04-05 22:03:00,
2013-04-05 15:53:00,43.0,38.0,-100.00,SSW,192,3.0,13.0,84,-99.99,,,0.26,327.000000,,2013-04-05 22:53:00,
2013-04-05 16:02:00,43.0,38.0,-100.00,SSW,192,3.0,13.0,84,-99.99,,,0.26,327.000000,,2013-04-05 23:02:00,
2013-04-05 16:53:00,44.0,37.0,-100.00,South,180,3.0,15.0,75,-99.99,,,0.19,329.000000,,2013-04-05 23:53:00,
2013-04-05 17:02:00,44.0,37.0,-100.00,South,180,3.0,15.0,75,-99.99,,,0.19,329.000000,,2013-04-06 00:02:00,
2013-04-05 17:52:00,42.0,36.0,-100.00,North,8,5.0,14.0,79,-99.99,,,0.18,154.000000,,2013-04-06 00:52:00,
2013-04-05 18:02:00,42.0,36.0,-100.00,North,8,5.0,14.0,79,-99.99,,,0.18,154.000000,,2013-04-06 01:02:00,
2013-04-05 18:53:00,39.0,36.0,-100.00,SSE,161,4.0,12.0,90,-99.99,,,0.20,43.000000,,2013-04-06 01:53:00,
2013-04-05 19:02:00,39.0,36.0,-100.00,SSE,161,4.0,12.0,90,-99.99,,,0.20,43.000000,,2013-04-06 02:02:00,
2013-04-05 19:52:00,38.0,35.0,-100.00,SSE,150,2.0,9.0,88,-99.99,,,0.19,11.000000,,2013-04-06 02:52:00,
2013-04-05 20:02:00,38.0,35.0,-100.00,SSE,150,2.0,9.0,88,-99.99,,,0.19,11.000000,,2013-04-06 03:02:00,
2013-04-05 20:54:00,37.0,35.0,-100.00,East,100,2.0,4.0,94,-99.99,,,0.19,0.000000,,2013-04-06 03:54:00,
2013-04-05 21:03:00,37.0,35.0,-100.00,East,100,2.0,4.0,94,-99.99,,,0.19,0.000000,,2013-04-06 04:03:00,
2013-04-05 21:53:00,37.0,35.0,-100.00,ENE,70,1.0,10.0,92,-99.99,,,0.19,0.000000,,2013-04-06 04:53:00,
2013-04-05 22:02:00,37.0,35.0,-100.00,ENE,70,1.0,10.0,92,-99.99,,,0.19,0.000000,,2013-04-06 05:02:00,
2013-04-05 22:12:00,37.0,35.0,-100.00,ENE,70,1.0,10.0,92,-99.99,,,0.19,0.000000,,2013-04-06 05:12:00,
2013-04-05 22:22:00,37.0,35.0,-100.00,ENE,70,1.0,10.0,92,-99.99,,,0.19,0.000000,,2013-04-06 05:22:00,
2013-04-05 22:32:00,37.0,35.0,-100.00,ENE,70,1.0,10.0,92,-99.99,,,0.19,0.000000,,2013-04-06 05:32:00,
2013-04-05 22:52:00,37.0,34.0,-100.00,NNE,31,3.0,7.0,88,0.01,,,0.20,0.000000,,2013-04-06 05:52:00,
2013-04-05 23:02:00,37.0,34.0,-100.00,NNE,31,3.0,7.0,88,0.01,,,0.20,0.000000,,2013-04-06 06:02:00,
2013-04-05 23:12:00,37.0,34.0,-100.00,NNE,31,3.0,7.0,88,0.01,,,0.20,0.000000,,2013-04-06 06:12:00,
2013-04-05 23:22:00,37.0,34.0,-100.00,NNE,31,3.0,7.0,88,0.01,,,0.20,0.000000,,2013-04-06 06:22:00,
2013-04-05 23:32:00,37.0,34.0,-100.00,NNE,31,3.0,7.0,88,0.01,,,0.20,0.000000,,2013-04-06 06:32:00,
2013-04-05 23:52:00,36.0,33.0,-100.00,SE,146,2.0,5.0,89,0.00,,,0.20,0.000000,,2013-04-06 06:52:00,